Orbital Elements at Epoch 2459200.5 (2020-Dec-17.0) TDB
Reference: JPL 23 (heliocentric ecliptic J2000)
Element | Value | Uncertainty (1-sigma) | Units |
e | .111003754438854 | 3.1425e-08 | |
a | 2.293541723329516 | 6.6627e-09 | au |
q | 2.03894998107778 | 7.1945e-08 | au |
i | 5.28192681776952 | 3.6099e-06 | deg |
node | 37.48837144901189 | 4.2531e-05 | deg |
peri | 59.01871272467841 | 4.6966e-05 | deg |
M | 12.97253162134119 | 1.9221e-05 | deg |
tp | 2459154.782693888988 (2020-Nov-01.28269389) | 6.7708e-05 | TDB |
period | 1268.698406785043 3.47 | 5.5283e-06 1.514e-08 | d yr |
n | .2837553811644341 | 1.2365e-09 | deg/d |
Q | 2.548133465581252 | 7.4023e-09 | au |
|
| | Orbit Determination Parameters
Additional Information
|